<?xml version="1.0" encoding="UTF-8" standalone="no" ?>
<gpx xmlns="http://www.topografix.com/GPX/1/1" xmlns:xsi="http://www.w3.org/2001/XMLSchema-instance" xsi:schemaLocation="http://www.topografix.com/GPX/1/1 http://www.topografix.com/GPX/1/1/gpx.xsd" version="1.1" creator="VisuGPX - https://www.visugpx.com">
  <metadata>
    <name>Triton 2026 10kms</name>
  </metadata>
  <wpt lat="45.42226" lon="5.53735">
    <ele>564.3</ele>
    <name><![CDATA[Ravitaillement]]></name>
    <desc><![CDATA[]]></desc>
  </wpt>
  <trk>
    <name><![CDATA[TRITON 2026 - Pedestre 11km-23400508]]></name>
    <trkseg>
      <trkpt lat="45.41295" lon="5.55578">
        <ele>470</ele>
        <time>2026-05-25T08:47:14Z</time>
      </trkpt>
      <trkpt lat="45.41286" lon="5.55585">
        <ele>470</ele>
        <time>2026-05-25T08:47:22Z</time>
      </trkpt>
      <trkpt lat="45.41255" lon="5.55585">
        <ele>471</ele>
        <time>2026-05-25T08:47:47Z</time>
      </trkpt>
      <trkpt lat="45.41247" lon="5.55577">
        <ele>471</ele>
        <time>2026-05-25T08:47:55Z</time>
      </trkpt>
      <trkpt lat="45.41222" lon="5.55543">
        <ele>471</ele>
        <time>2026-05-25T08:48:23Z</time>
      </trkpt>
      <trkpt lat="45.41201" lon="5.55526">
        <ele>471</ele>
        <time>2026-05-25T08:48:42Z</time>
      </trkpt>
      <trkpt lat="45.412" lon="5.55524">
        <ele>471</ele>
        <time>2026-05-25T08:48:43Z</time>
      </trkpt>
      <trkpt lat="45.41205" lon="5.55512">
        <ele>471</ele>
        <time>2026-05-25T08:48:51Z</time>
      </trkpt>
      <trkpt lat="45.41207" lon="5.55503">
        <ele>471</ele>
        <time>2026-05-25T08:48:56Z</time>
      </trkpt>
      <trkpt lat="45.41239" lon="5.55457">
        <ele>470</ele>
        <time>2026-05-25T08:49:33Z</time>
      </trkpt>
      <trkpt lat="45.41243" lon="5.55452">
        <ele>470</ele>
        <time>2026-05-25T08:49:37Z</time>
      </trkpt>
      <trkpt lat="45.41286" lon="5.55412">
        <ele>467</ele>
        <time>2026-05-25T08:50:18Z</time>
      </trkpt>
      <trkpt lat="45.41293" lon="5.55398">
        <ele>466</ele>
        <time>2026-05-25T08:50:28Z</time>
      </trkpt>
      <trkpt lat="45.41292" lon="5.55312">
        <ele>465</ele>
        <time>2026-05-25T08:51:16Z</time>
      </trkpt>
      <trkpt lat="45.41296" lon="5.55253">
        <ele>464</ele>
        <time>2026-05-25T08:51:50Z</time>
      </trkpt>
      <trkpt lat="45.41292" lon="5.5521">
        <ele>464</ele>
        <time>2026-05-25T08:52:14Z</time>
      </trkpt>
      <trkpt lat="45.41287" lon="5.5519">
        <ele>464</ele>
        <time>2026-05-25T08:52:26Z</time>
      </trkpt>
      <trkpt lat="45.41287" lon="5.55183">
        <ele>464</ele>
        <time>2026-05-25T08:52:30Z</time>
      </trkpt>
      <trkpt lat="45.41296" lon="5.55145">
        <ele>465</ele>
        <time>2026-05-25T08:52:52Z</time>
      </trkpt>
      <trkpt lat="45.41299" lon="5.55117">
        <ele>465</ele>
        <time>2026-05-25T08:53:08Z</time>
      </trkpt>
      <trkpt lat="45.41298" lon="5.5509">
        <ele>466</ele>
        <time>2026-05-25T08:53:23Z</time>
      </trkpt>
      <trkpt lat="45.41288" lon="5.54991">
        <ele>467</ele>
        <time>2026-05-25T08:54:20Z</time>
      </trkpt>
      <trkpt lat="45.41288" lon="5.54973">
        <ele>468</ele>
        <time>2026-05-25T08:54:30Z</time>
      </trkpt>
      <trkpt lat="45.41289" lon="5.5496">
        <ele>468</ele>
        <time>2026-05-25T08:54:37Z</time>
      </trkpt>
      <trkpt lat="45.41295" lon="5.54948">
        <ele>468</ele>
        <time>2026-05-25T08:54:45Z</time>
      </trkpt>
      <trkpt lat="45.41322" lon="5.5491">
        <ele>469</ele>
        <time>2026-05-25T08:55:16Z</time>
      </trkpt>
      <trkpt lat="45.41347" lon="5.54874">
        <ele>471</ele>
        <time>2026-05-25T08:55:44Z</time>
      </trkpt>
      <trkpt lat="45.41386" lon="5.54749">
        <ele>478</ele>
        <time>2026-05-25T08:57:01Z</time>
      </trkpt>
      <trkpt lat="45.41391" lon="5.54736">
        <ele>478</ele>
        <time>2026-05-25T08:57:09Z</time>
      </trkpt>
      <trkpt lat="45.41405" lon="5.54698">
        <ele>480</ele>
        <time>2026-05-25T08:57:34Z</time>
      </trkpt>
      <trkpt lat="45.41409" lon="5.54683">
        <ele>480</ele>
        <time>2026-05-25T08:57:43Z</time>
      </trkpt>
      <trkpt lat="45.41426" lon="5.54604">
        <ele>486</ele>
        <time>2026-05-25T08:58:29Z</time>
      </trkpt>
      <trkpt lat="45.41463" lon="5.54502">
        <ele>500</ele>
        <time>2026-05-25T08:59:34Z</time>
      </trkpt>
      <trkpt lat="45.41463" lon="5.54502">
        <ele>500</ele>
        <time>2026-05-25T08:59:34Z</time>
      </trkpt>
      <trkpt lat="45.41464" lon="5.54498">
        <ele>501</ele>
        <time>2026-05-25T08:59:36Z</time>
      </trkpt>
      <trkpt lat="45.41462" lon="5.54485">
        <ele>502</ele>
        <time>2026-05-25T08:59:43Z</time>
      </trkpt>
      <trkpt lat="45.41455" lon="5.54464">
        <ele>503</ele>
        <time>2026-05-25T08:59:57Z</time>
      </trkpt>
      <trkpt lat="45.41438" lon="5.54439">
        <ele>504</ele>
        <time>2026-05-25T09:00:16Z</time>
      </trkpt>
      <trkpt lat="45.41435" lon="5.5442">
        <ele>505</ele>
        <time>2026-05-25T09:00:27Z</time>
      </trkpt>
      <trkpt lat="45.41433" lon="5.54407">
        <ele>505</ele>
        <time>2026-05-25T09:00:35Z</time>
      </trkpt>
      <trkpt lat="45.41425" lon="5.54363">
        <ele>507</ele>
        <time>2026-05-25T09:01:00Z</time>
      </trkpt>
      <trkpt lat="45.41424" lon="5.54337">
        <ele>508</ele>
        <time>2026-05-25T09:01:15Z</time>
      </trkpt>
      <trkpt lat="45.41404" lon="5.54284">
        <ele>515</ele>
        <time>2026-05-25T09:01:49Z</time>
      </trkpt>
      <trkpt lat="45.41379" lon="5.54251">
        <ele>519</ele>
        <time>2026-05-25T09:02:16Z</time>
      </trkpt>
      <trkpt lat="45.41342" lon="5.5421">
        <ele>523</ele>
        <time>2026-05-25T09:02:53Z</time>
      </trkpt>
      <trkpt lat="45.41333" lon="5.54196">
        <ele>524</ele>
        <time>2026-05-25T09:03:04Z</time>
      </trkpt>
      <trkpt lat="45.41328" lon="5.54133">
        <ele>530</ele>
        <time>2026-05-25T09:03:40Z</time>
      </trkpt>
      <trkpt lat="45.41327" lon="5.54125">
        <ele>531</ele>
        <time>2026-05-25T09:03:44Z</time>
      </trkpt>
      <trkpt lat="45.41329" lon="5.54118">
        <ele>531</ele>
        <time>2026-05-25T09:03:48Z</time>
      </trkpt>
      <trkpt lat="45.41332" lon="5.54115">
        <ele>531</ele>
        <time>2026-05-25T09:03:51Z</time>
      </trkpt>
      <trkpt lat="45.41326" lon="5.54093">
        <ele>532</ele>
        <time>2026-05-25T09:04:05Z</time>
      </trkpt>
      <trkpt lat="45.41319" lon="5.54066">
        <ele>533</ele>
        <time>2026-05-25T09:04:21Z</time>
      </trkpt>
      <trkpt lat="45.41308" lon="5.54049">
        <ele>533</ele>
        <time>2026-05-25T09:04:34Z</time>
      </trkpt>
      <trkpt lat="45.413" lon="5.54031">
        <ele>534</ele>
        <time>2026-05-25T09:04:46Z</time>
      </trkpt>
      <trkpt lat="45.41284" lon="5.54011">
        <ele>534</ele>
        <time>2026-05-25T09:05:03Z</time>
      </trkpt>
      <trkpt lat="45.41278" lon="5.54003">
        <ele>533</ele>
        <time>2026-05-25T09:05:09Z</time>
      </trkpt>
      <trkpt lat="45.41269" lon="5.53985">
        <ele>534</ele>
        <time>2026-05-25T09:05:22Z</time>
      </trkpt>
      <trkpt lat="45.41265" lon="5.53962">
        <ele>534</ele>
        <time>2026-05-25T09:05:35Z</time>
      </trkpt>
      <trkpt lat="45.41269" lon="5.53935">
        <ele>536</ele>
        <time>2026-05-25T09:05:51Z</time>
      </trkpt>
      <trkpt lat="45.41271" lon="5.53926">
        <ele>536</ele>
        <time>2026-05-25T09:05:56Z</time>
      </trkpt>
      <trkpt lat="45.41276" lon="5.53905">
        <ele>537</ele>
        <time>2026-05-25T09:06:08Z</time>
      </trkpt>
      <trkpt lat="45.41272" lon="5.53856">
        <ele>536</ele>
        <time>2026-05-25T09:06:36Z</time>
      </trkpt>
      <trkpt lat="45.41265" lon="5.53813">
        <ele>535</ele>
        <time>2026-05-25T09:07:01Z</time>
      </trkpt>
      <trkpt lat="45.41235" lon="5.53761">
        <ele>533</ele>
        <time>2026-05-25T09:07:39Z</time>
      </trkpt>
      <trkpt lat="45.41222" lon="5.5373">
        <ele>533</ele>
        <time>2026-05-25T09:07:59Z</time>
      </trkpt>
      <trkpt lat="45.41202" lon="5.53691">
        <ele>533</ele>
        <time>2026-05-25T09:08:26Z</time>
      </trkpt>
      <trkpt lat="45.41199" lon="5.53678">
        <ele>534</ele>
        <time>2026-05-25T09:08:34Z</time>
      </trkpt>
      <trkpt lat="45.41198" lon="5.5365">
        <ele>534</ele>
        <time>2026-05-25T09:08:50Z</time>
      </trkpt>
      <trkpt lat="45.41213" lon="5.53575">
        <ele>535</ele>
        <time>2026-05-25T09:09:34Z</time>
      </trkpt>
      <trkpt lat="45.41214" lon="5.53544">
        <ele>532</ele>
        <time>2026-05-25T09:09:51Z</time>
      </trkpt>
      <trkpt lat="45.41212" lon="5.53506">
        <ele>529</ele>
        <time>2026-05-25T09:10:12Z</time>
      </trkpt>
      <trkpt lat="45.41226" lon="5.53445">
        <ele>523</ele>
        <time>2026-05-25T09:10:49Z</time>
      </trkpt>
      <trkpt lat="45.41261" lon="5.53425">
        <ele>522</ele>
        <time>2026-05-25T09:11:19Z</time>
      </trkpt>
      <trkpt lat="45.41284" lon="5.53414">
        <ele>523</ele>
        <time>2026-05-25T09:11:38Z</time>
      </trkpt>
      <trkpt lat="45.41322" lon="5.53386">
        <ele>523</ele>
        <time>2026-05-25T09:12:12Z</time>
      </trkpt>
      <trkpt lat="45.41359" lon="5.53362">
        <ele>523</ele>
        <time>2026-05-25T09:12:45Z</time>
      </trkpt>
      <trkpt lat="45.41402" lon="5.53341">
        <ele>525</ele>
        <time>2026-05-25T09:13:21Z</time>
      </trkpt>
      <trkpt lat="45.41406" lon="5.53332">
        <ele>525</ele>
        <time>2026-05-25T09:13:27Z</time>
      </trkpt>
      <trkpt lat="45.41423" lon="5.53317">
        <ele>524</ele>
        <time>2026-05-25T09:13:43Z</time>
      </trkpt>
      <trkpt lat="45.41457" lon="5.53296">
        <ele>522</ele>
        <time>2026-05-25T09:14:13Z</time>
      </trkpt>
      <trkpt lat="45.41506" lon="5.53309">
        <ele>526</ele>
        <time>2026-05-25T09:14:53Z</time>
      </trkpt>
      <trkpt lat="45.41565" lon="5.53315">
        <ele>528</ele>
        <time>2026-05-25T09:15:40Z</time>
      </trkpt>
      <trkpt lat="45.41611" lon="5.53334">
        <ele>533</ele>
        <time>2026-05-25T09:16:19Z</time>
      </trkpt>
      <trkpt lat="45.41666" lon="5.5333">
        <ele>531</ele>
        <time>2026-05-25T09:17:03Z</time>
      </trkpt>
      <trkpt lat="45.41716" lon="5.53343">
        <ele>537</ele>
        <time>2026-05-25T09:17:43Z</time>
      </trkpt>
      <trkpt lat="45.41735" lon="5.53345">
        <ele>539</ele>
        <time>2026-05-25T09:17:59Z</time>
      </trkpt>
      <trkpt lat="45.41784" lon="5.53335">
        <ele>535</ele>
        <time>2026-05-25T09:18:38Z</time>
      </trkpt>
      <trkpt lat="45.41798" lon="5.53335">
        <ele>535</ele>
        <time>2026-05-25T09:18:50Z</time>
      </trkpt>
      <trkpt lat="45.41817" lon="5.53339">
        <ele>536</ele>
        <time>2026-05-25T09:19:05Z</time>
      </trkpt>
      <trkpt lat="45.41825" lon="5.53339">
        <ele>536</ele>
        <time>2026-05-25T09:19:11Z</time>
      </trkpt>
      <trkpt lat="45.41832" lon="5.53338">
        <ele>536</ele>
        <time>2026-05-25T09:19:17Z</time>
      </trkpt>
      <trkpt lat="45.41847" lon="5.53326">
        <ele>534</ele>
        <time>2026-05-25T09:19:31Z</time>
      </trkpt>
      <trkpt lat="45.4186" lon="5.53313">
        <ele>535</ele>
        <time>2026-05-25T09:19:43Z</time>
      </trkpt>
      <trkpt lat="45.41869" lon="5.53298">
        <ele>535</ele>
        <time>2026-05-25T09:19:55Z</time>
      </trkpt>
      <trkpt lat="45.41871" lon="5.53289">
        <ele>534</ele>
        <time>2026-05-25T09:20:00Z</time>
      </trkpt>
      <trkpt lat="45.41874" lon="5.53274">
        <ele>534</ele>
        <time>2026-05-25T09:20:09Z</time>
      </trkpt>
      <trkpt lat="45.41875" lon="5.53252">
        <ele>533</ele>
        <time>2026-05-25T09:20:21Z</time>
      </trkpt>
      <trkpt lat="45.41875" lon="5.53232">
        <ele>532</ele>
        <time>2026-05-25T09:20:32Z</time>
      </trkpt>
      <trkpt lat="45.41876" lon="5.53221">
        <ele>532</ele>
        <time>2026-05-25T09:20:38Z</time>
      </trkpt>
      <trkpt lat="45.4187" lon="5.53222">
        <ele>531</ele>
        <time>2026-05-25T09:20:43Z</time>
      </trkpt>
      <trkpt lat="45.41866" lon="5.53221">
        <ele>530</ele>
        <time>2026-05-25T09:20:47Z</time>
      </trkpt>
      <trkpt lat="45.41857" lon="5.53216">
        <ele>529</ele>
        <time>2026-05-25T09:20:54Z</time>
      </trkpt>
      <trkpt lat="45.41841" lon="5.53203">
        <ele>526</ele>
        <time>2026-05-25T09:21:09Z</time>
      </trkpt>
      <trkpt lat="45.41823" lon="5.53185">
        <ele>524</ele>
        <time>2026-05-25T09:21:27Z</time>
      </trkpt>
      <trkpt lat="45.41794" lon="5.53167">
        <ele>521</ele>
        <time>2026-05-25T09:21:52Z</time>
      </trkpt>
      <trkpt lat="45.41782" lon="5.53145">
        <ele>519</ele>
        <time>2026-05-25T09:22:08Z</time>
      </trkpt>
      <trkpt lat="45.4177" lon="5.53097">
        <ele>515</ele>
        <time>2026-05-25T09:22:36Z</time>
      </trkpt>
      <trkpt lat="45.41749" lon="5.53037">
        <ele>508</ele>
        <time>2026-05-25T09:23:14Z</time>
      </trkpt>
      <trkpt lat="45.41737" lon="5.52993">
        <ele>505</ele>
        <time>2026-05-25T09:23:40Z</time>
      </trkpt>
      <trkpt lat="45.41728" lon="5.5297">
        <ele>504</ele>
        <time>2026-05-25T09:23:55Z</time>
      </trkpt>
      <trkpt lat="45.41719" lon="5.52961">
        <ele>503</ele>
        <time>2026-05-25T09:24:04Z</time>
      </trkpt>
      <trkpt lat="45.41707" lon="5.52953">
        <ele>502</ele>
        <time>2026-05-25T09:24:15Z</time>
      </trkpt>
      <trkpt lat="45.41691" lon="5.52945">
        <ele>501</ele>
        <time>2026-05-25T09:24:28Z</time>
      </trkpt>
      <trkpt lat="45.41688" lon="5.5294">
        <ele>500</ele>
        <time>2026-05-25T09:24:32Z</time>
      </trkpt>
      <trkpt lat="45.4169" lon="5.52934">
        <ele>500</ele>
        <time>2026-05-25T09:24:36Z</time>
      </trkpt>
      <trkpt lat="45.41726" lon="5.52881">
        <ele>502</ele>
        <time>2026-05-25T09:25:17Z</time>
      </trkpt>
      <trkpt lat="45.41783" lon="5.52802">
        <ele>503</ele>
        <time>2026-05-25T09:26:21Z</time>
      </trkpt>
      <trkpt lat="45.41789" lon="5.52791">
        <ele>503</ele>
        <time>2026-05-25T09:26:29Z</time>
      </trkpt>
      <trkpt lat="45.41796" lon="5.52779">
        <ele>503</ele>
        <time>2026-05-25T09:26:37Z</time>
      </trkpt>
      <trkpt lat="45.41837" lon="5.52724">
        <ele>504</ele>
        <time>2026-05-25T09:27:22Z</time>
      </trkpt>
      <trkpt lat="45.4186" lon="5.52699">
        <ele>505</ele>
        <time>2026-05-25T09:27:46Z</time>
      </trkpt>
      <trkpt lat="45.41877" lon="5.52685">
        <ele>505</ele>
        <time>2026-05-25T09:28:01Z</time>
      </trkpt>
      <trkpt lat="45.41897" lon="5.52674">
        <ele>505</ele>
        <time>2026-05-25T09:28:19Z</time>
      </trkpt>
      <trkpt lat="45.41942" lon="5.52642">
        <ele>506</ele>
        <time>2026-05-25T09:28:59Z</time>
      </trkpt>
      <trkpt lat="45.4197" lon="5.5262">
        <ele>507</ele>
        <time>2026-05-25T09:29:24Z</time>
      </trkpt>
      <trkpt lat="45.41998" lon="5.52595">
        <ele>507</ele>
        <time>2026-05-25T09:29:51Z</time>
      </trkpt>
      <trkpt lat="45.42026" lon="5.52568">
        <ele>509</ele>
        <time>2026-05-25T09:30:18Z</time>
      </trkpt>
      <trkpt lat="45.4205" lon="5.52541">
        <ele>510</ele>
        <time>2026-05-25T09:30:42Z</time>
      </trkpt>
      <trkpt lat="45.42136" lon="5.52455">
        <ele>513</ele>
        <time>2026-05-25T09:32:07Z</time>
      </trkpt>
      <trkpt lat="45.42204" lon="5.52381">
        <ele>514</ele>
        <time>2026-05-25T09:33:15Z</time>
      </trkpt>
      <trkpt lat="45.42256" lon="5.52336">
        <ele>514</ele>
        <time>2026-05-25T09:34:04Z</time>
      </trkpt>
      <trkpt lat="45.42278" lon="5.52312">
        <ele>515</ele>
        <time>2026-05-25T09:34:26Z</time>
      </trkpt>
      <trkpt lat="45.42306" lon="5.52291">
        <ele>517</ele>
        <time>2026-05-25T09:34:51Z</time>
      </trkpt>
      <trkpt lat="45.42309" lon="5.52292">
        <ele>517</ele>
        <time>2026-05-25T09:34:54Z</time>
      </trkpt>
      <trkpt lat="45.42362" lon="5.5231">
        <ele>520</ele>
        <time>2026-05-25T09:35:37Z</time>
      </trkpt>
      <trkpt lat="45.42362" lon="5.52311">
        <ele>520</ele>
        <time>2026-05-25T09:35:38Z</time>
      </trkpt>
      <trkpt lat="45.42361" lon="5.52315">
        <ele>520</ele>
        <time>2026-05-25T09:35:40Z</time>
      </trkpt>
      <trkpt lat="45.42389" lon="5.52336">
        <ele>522</ele>
        <time>2026-05-25T09:36:06Z</time>
      </trkpt>
      <trkpt lat="45.42433" lon="5.52367">
        <ele>525</ele>
        <time>2026-05-25T09:36:45Z</time>
      </trkpt>
      <trkpt lat="45.42505" lon="5.52419">
        <ele>533</ele>
        <time>2026-05-25T09:37:50Z</time>
      </trkpt>
      <trkpt lat="45.42504" lon="5.52458">
        <ele>535</ele>
        <time>2026-05-25T09:38:12Z</time>
      </trkpt>
      <trkpt lat="45.42505" lon="5.52488">
        <ele>537</ele>
        <time>2026-05-25T09:38:28Z</time>
      </trkpt>
      <trkpt lat="45.42512" lon="5.5255">
        <ele>541</ele>
        <time>2026-05-25T09:39:04Z</time>
      </trkpt>
      <trkpt lat="45.42539" lon="5.52594">
        <ele>545</ele>
        <time>2026-05-25T09:39:37Z</time>
      </trkpt>
      <trkpt lat="45.42559" lon="5.52604">
        <ele>548</ele>
        <time>2026-05-25T09:39:54Z</time>
      </trkpt>
      <trkpt lat="45.42571" lon="5.52619">
        <ele>550</ele>
        <time>2026-05-25T09:40:06Z</time>
      </trkpt>
      <trkpt lat="45.42611" lon="5.52702">
        <ele>560</ele>
        <time>2026-05-25T09:41:03Z</time>
      </trkpt>
      <trkpt lat="45.42608" lon="5.52707">
        <ele>560</ele>
        <time>2026-05-25T09:41:07Z</time>
      </trkpt>
      <trkpt lat="45.4259" lon="5.52741">
        <ele>562</ele>
        <time>2026-05-25T09:41:31Z</time>
      </trkpt>
      <trkpt lat="45.42611" lon="5.52795">
        <ele>570</ele>
        <time>2026-05-25T09:42:05Z</time>
      </trkpt>
      <trkpt lat="45.42639" lon="5.52873">
        <ele>587</ele>
        <time>2026-05-25T09:42:54Z</time>
      </trkpt>
      <trkpt lat="45.42649" lon="5.52915">
        <ele>598</ele>
        <time>2026-05-25T09:43:19Z</time>
      </trkpt>
      <trkpt lat="45.42654" lon="5.52931">
        <ele>602</ele>
        <time>2026-05-25T09:43:29Z</time>
      </trkpt>
      <trkpt lat="45.42669" lon="5.52942">
        <ele>605</ele>
        <time>2026-05-25T09:43:43Z</time>
      </trkpt>
      <trkpt lat="45.42684" lon="5.52971">
        <ele>614</ele>
        <time>2026-05-25T09:44:03Z</time>
      </trkpt>
      <trkpt lat="45.42714" lon="5.53003">
        <ele>622</ele>
        <time>2026-05-25T09:44:33Z</time>
      </trkpt>
      <trkpt lat="45.42757" lon="5.53048">
        <ele>631</ele>
        <time>2026-05-25T09:45:16Z</time>
      </trkpt>
      <trkpt lat="45.42757" lon="5.53048">
        <ele>631</ele>
        <time>2026-05-25T09:45:16Z</time>
      </trkpt>
      <trkpt lat="45.42764" lon="5.53056">
        <ele>634</ele>
        <time>2026-05-25T09:45:23Z</time>
      </trkpt>
      <trkpt lat="45.42786" lon="5.53095">
        <ele>641</ele>
        <time>2026-05-25T09:45:51Z</time>
      </trkpt>
      <trkpt lat="45.42802" lon="5.53113">
        <ele>645</ele>
        <time>2026-05-25T09:46:07Z</time>
      </trkpt>
      <trkpt lat="45.42819" lon="5.53133">
        <ele>647</ele>
        <time>2026-05-25T09:46:25Z</time>
      </trkpt>
      <trkpt lat="45.42833" lon="5.53172">
        <ele>649</ele>
        <time>2026-05-25T09:46:50Z</time>
      </trkpt>
      <trkpt lat="45.42832" lon="5.53198">
        <ele>653</ele>
        <time>2026-05-25T09:47:04Z</time>
      </trkpt>
      <trkpt lat="45.42822" lon="5.53258">
        <ele>667</ele>
        <time>2026-05-25T09:47:39Z</time>
      </trkpt>
      <trkpt lat="45.42823" lon="5.53321">
        <ele>679</ele>
        <time>2026-05-25T09:48:14Z</time>
      </trkpt>
      <trkpt lat="45.4281" lon="5.53409">
        <ele>701</ele>
        <time>2026-05-25T09:49:05Z</time>
      </trkpt>
      <trkpt lat="45.42803" lon="5.53415">
        <ele>704</ele>
        <time>2026-05-25T09:49:11Z</time>
      </trkpt>
      <trkpt lat="45.42794" lon="5.53413">
        <ele>706</ele>
        <time>2026-05-25T09:49:19Z</time>
      </trkpt>
      <trkpt lat="45.42788" lon="5.53405">
        <ele>706</ele>
        <time>2026-05-25T09:49:25Z</time>
      </trkpt>
      <trkpt lat="45.42754" lon="5.53331">
        <ele>701</ele>
        <time>2026-05-25T09:50:15Z</time>
      </trkpt>
      <trkpt lat="45.42747" lon="5.53327">
        <ele>703</ele>
        <time>2026-05-25T09:50:21Z</time>
      </trkpt>
      <trkpt lat="45.42733" lon="5.53335">
        <ele>708</ele>
        <time>2026-05-25T09:50:33Z</time>
      </trkpt>
      <trkpt lat="45.42727" lon="5.53335">
        <ele>709</ele>
        <time>2026-05-25T09:50:38Z</time>
      </trkpt>
      <trkpt lat="45.42716" lon="5.53317">
        <ele>710</ele>
        <time>2026-05-25T09:50:51Z</time>
      </trkpt>
      <trkpt lat="45.42677" lon="5.53357">
        <ele>726</ele>
        <time>2026-05-25T09:51:30Z</time>
      </trkpt>
      <trkpt lat="45.42672" lon="5.53366">
        <ele>729</ele>
        <time>2026-05-25T09:51:36Z</time>
      </trkpt>
      <trkpt lat="45.42664" lon="5.53371">
        <ele>731</ele>
        <time>2026-05-25T09:51:43Z</time>
      </trkpt>
      <trkpt lat="45.42655" lon="5.53371">
        <ele>729</ele>
        <time>2026-05-25T09:51:50Z</time>
      </trkpt>
      <trkpt lat="45.42647" lon="5.53375">
        <ele>729</ele>
        <time>2026-05-25T09:51:57Z</time>
      </trkpt>
      <trkpt lat="45.4265" lon="5.53382">
        <ele>730</ele>
        <time>2026-05-25T09:52:02Z</time>
      </trkpt>
      <trkpt lat="45.42652" lon="5.53393">
        <ele>732</ele>
        <time>2026-05-25T09:52:08Z</time>
      </trkpt>
      <trkpt lat="45.42652" lon="5.53405">
        <ele>734</ele>
        <time>2026-05-25T09:52:15Z</time>
      </trkpt>
      <trkpt lat="45.42651" lon="5.53414">
        <ele>735</ele>
        <time>2026-05-25T09:52:20Z</time>
      </trkpt>
      <trkpt lat="45.4265" lon="5.53417">
        <ele>735</ele>
        <time>2026-05-25T09:52:22Z</time>
      </trkpt>
      <trkpt lat="45.42651" lon="5.53414">
        <ele>735</ele>
        <time>2026-05-25T09:52:24Z</time>
      </trkpt>
      <trkpt lat="45.42652" lon="5.53405">
        <ele>734</ele>
        <time>2026-05-25T09:52:29Z</time>
      </trkpt>
      <trkpt lat="45.42652" lon="5.53393">
        <ele>732</ele>
        <time>2026-05-25T09:52:36Z</time>
      </trkpt>
      <trkpt lat="45.4265" lon="5.53382">
        <ele>730</ele>
        <time>2026-05-25T09:52:42Z</time>
      </trkpt>
      <trkpt lat="45.42647" lon="5.53375">
        <ele>729</ele>
        <time>2026-05-25T09:52:47Z</time>
      </trkpt>
      <trkpt lat="45.42646" lon="5.53372">
        <ele>729</ele>
        <time>2026-05-25T09:52:48Z</time>
      </trkpt>
      <trkpt lat="45.42638" lon="5.53345">
        <ele>724</ele>
        <time>2026-05-25T09:53:05Z</time>
      </trkpt>
      <trkpt lat="45.42633" lon="5.53336">
        <ele>723</ele>
        <time>2026-05-25T09:53:11Z</time>
      </trkpt>
      <trkpt lat="45.42616" lon="5.53316">
        <ele>719</ele>
        <time>2026-05-25T09:53:29Z</time>
      </trkpt>
      <trkpt lat="45.42612" lon="5.5331">
        <ele>718</ele>
        <time>2026-05-25T09:53:34Z</time>
      </trkpt>
      <trkpt lat="45.4261" lon="5.53303">
        <ele>717</ele>
        <time>2026-05-25T09:53:38Z</time>
      </trkpt>
      <trkpt lat="45.42605" lon="5.53292">
        <ele>715</ele>
        <time>2026-05-25T09:53:45Z</time>
      </trkpt>
      <trkpt lat="45.42604" lon="5.53286">
        <ele>714</ele>
        <time>2026-05-25T09:53:49Z</time>
      </trkpt>
      <trkpt lat="45.42609" lon="5.53269">
        <ele>712</ele>
        <time>2026-05-25T09:53:59Z</time>
      </trkpt>
      <trkpt lat="45.4261" lon="5.53261">
        <ele>711</ele>
        <time>2026-05-25T09:54:04Z</time>
      </trkpt>
      <trkpt lat="45.42608" lon="5.53253">
        <ele>709</ele>
        <time>2026-05-25T09:54:08Z</time>
      </trkpt>
      <trkpt lat="45.426" lon="5.53238">
        <ele>706</ele>
        <time>2026-05-25T09:54:19Z</time>
      </trkpt>
      <trkpt lat="45.42596" lon="5.53211">
        <ele>699</ele>
        <time>2026-05-25T09:54:35Z</time>
      </trkpt>
      <trkpt lat="45.42595" lon="5.5318">
        <ele>693</ele>
        <time>2026-05-25T09:54:52Z</time>
      </trkpt>
      <trkpt lat="45.42587" lon="5.53096">
        <ele>667</ele>
        <time>2026-05-25T09:55:40Z</time>
      </trkpt>
      <trkpt lat="45.42574" lon="5.53098">
        <ele>664</ele>
        <time>2026-05-25T09:55:50Z</time>
      </trkpt>
      <trkpt lat="45.42563" lon="5.53103">
        <ele>662</ele>
        <time>2026-05-25T09:55:59Z</time>
      </trkpt>
      <trkpt lat="45.42546" lon="5.53116">
        <ele>659</ele>
        <time>2026-05-25T09:56:15Z</time>
      </trkpt>
      <trkpt lat="45.42528" lon="5.53134">
        <ele>657</ele>
        <time>2026-05-25T09:56:32Z</time>
      </trkpt>
      <trkpt lat="45.42485" lon="5.53198">
        <ele>650</ele>
        <time>2026-05-25T09:57:22Z</time>
      </trkpt>
      <trkpt lat="45.42468" lon="5.53236">
        <ele>647</ele>
        <time>2026-05-25T09:57:48Z</time>
      </trkpt>
      <trkpt lat="45.4245" lon="5.53269">
        <ele>639</ele>
        <time>2026-05-25T09:58:11Z</time>
      </trkpt>
      <trkpt lat="45.42449" lon="5.5328">
        <ele>639</ele>
        <time>2026-05-25T09:58:17Z</time>
      </trkpt>
      <trkpt lat="45.42443" lon="5.53291">
        <ele>636</ele>
        <time>2026-05-25T09:58:25Z</time>
      </trkpt>
      <trkpt lat="45.42437" lon="5.53309">
        <ele>633</ele>
        <time>2026-05-25T09:58:36Z</time>
      </trkpt>
      <trkpt lat="45.42433" lon="5.53327">
        <ele>632</ele>
        <time>2026-05-25T09:58:47Z</time>
      </trkpt>
      <trkpt lat="45.42432" lon="5.53349">
        <ele>631</ele>
        <time>2026-05-25T09:58:59Z</time>
      </trkpt>
      <trkpt lat="45.42421" lon="5.53392">
        <ele>624</ele>
        <time>2026-05-25T09:59:25Z</time>
      </trkpt>
      <trkpt lat="45.42416" lon="5.53449">
        <ele>621</ele>
        <time>2026-05-25T09:59:57Z</time>
      </trkpt>
      <trkpt lat="45.42408" lon="5.53486">
        <ele>617</ele>
        <time>2026-05-25T10:00:19Z</time>
      </trkpt>
      <trkpt lat="45.424" lon="5.53511">
        <ele>614</ele>
        <time>2026-05-25T10:00:34Z</time>
      </trkpt>
      <trkpt lat="45.42391" lon="5.53529">
        <ele>610</ele>
        <time>2026-05-25T10:00:47Z</time>
      </trkpt>
      <trkpt lat="45.42382" lon="5.53537">
        <ele>606</ele>
        <time>2026-05-25T10:00:55Z</time>
      </trkpt>
      <trkpt lat="45.42371" lon="5.53543">
        <ele>600</ele>
        <time>2026-05-25T10:01:05Z</time>
      </trkpt>
      <trkpt lat="45.42339" lon="5.53544">
        <ele>585</ele>
        <time>2026-05-25T10:01:30Z</time>
      </trkpt>
      <trkpt lat="45.42302" lon="5.53546">
        <ele>578</ele>
        <time>2026-05-25T10:02:00Z</time>
      </trkpt>
      <trkpt lat="45.42285" lon="5.5355">
        <ele>576</ele>
        <time>2026-05-25T10:02:14Z</time>
      </trkpt>
      <trkpt lat="45.42276" lon="5.53561">
        <ele>575</ele>
        <time>2026-05-25T10:02:23Z</time>
      </trkpt>
      <trkpt lat="45.42265" lon="5.53606">
        <ele>575</ele>
        <time>2026-05-25T10:02:50Z</time>
      </trkpt>
      <trkpt lat="45.42262" lon="5.53625">
        <ele>574</ele>
        <time>2026-05-25T10:03:01Z</time>
      </trkpt>
      <trkpt lat="45.42252" lon="5.53653">
        <ele>573</ele>
        <time>2026-05-25T10:03:19Z</time>
      </trkpt>
      <trkpt lat="45.42247" lon="5.53686">
        <ele>571</ele>
        <time>2026-05-25T10:03:38Z</time>
      </trkpt>
      <trkpt lat="45.42242" lon="5.53703">
        <ele>569</ele>
        <time>2026-05-25T10:03:48Z</time>
      </trkpt>
      <trkpt lat="45.4223" lon="5.53724">
        <ele>566</ele>
        <time>2026-05-25T10:04:03Z</time>
      </trkpt>
      <trkpt lat="45.42226" lon="5.53735">
        <ele>565</ele>
        <time>2026-05-25T10:04:11Z</time>
      </trkpt>
      <trkpt lat="45.42226" lon="5.53736">
        <ele>565</ele>
        <time>2026-05-25T10:04:11Z</time>
      </trkpt>
      <trkpt lat="45.42222" lon="5.53755">
        <ele>564</ele>
        <time>2026-05-25T10:04:22Z</time>
      </trkpt>
      <trkpt lat="45.42222" lon="5.53766">
        <ele>564</ele>
        <time>2026-05-25T10:04:28Z</time>
      </trkpt>
      <trkpt lat="45.42221" lon="5.53775">
        <ele>564</ele>
        <time>2026-05-25T10:04:33Z</time>
      </trkpt>
      <trkpt lat="45.42215" lon="5.53803">
        <ele>564</ele>
        <time>2026-05-25T10:04:50Z</time>
      </trkpt>
      <trkpt lat="45.42197" lon="5.5385">
        <ele>565</ele>
        <time>2026-05-25T10:05:20Z</time>
      </trkpt>
      <trkpt lat="45.42189" lon="5.53875">
        <ele>566</ele>
        <time>2026-05-25T10:05:35Z</time>
      </trkpt>
      <trkpt lat="45.42187" lon="5.53901">
        <ele>568</ele>
        <time>2026-05-25T10:05:50Z</time>
      </trkpt>
      <trkpt lat="45.42183" lon="5.53971">
        <ele>571</ele>
        <time>2026-05-25T10:06:29Z</time>
      </trkpt>
      <trkpt lat="45.42179" lon="5.53984">
        <ele>571</ele>
        <time>2026-05-25T10:06:37Z</time>
      </trkpt>
      <trkpt lat="45.42171" lon="5.54002">
        <ele>571</ele>
        <time>2026-05-25T10:06:49Z</time>
      </trkpt>
      <trkpt lat="45.42164" lon="5.54015">
        <ele>571</ele>
        <time>2026-05-25T10:06:59Z</time>
      </trkpt>
      <trkpt lat="45.42155" lon="5.54025">
        <ele>572</ele>
        <time>2026-05-25T10:07:08Z</time>
      </trkpt>
      <trkpt lat="45.42148" lon="5.54031">
        <ele>572</ele>
        <time>2026-05-25T10:07:14Z</time>
      </trkpt>
      <trkpt lat="45.42137" lon="5.54038">
        <ele>573</ele>
        <time>2026-05-25T10:07:24Z</time>
      </trkpt>
      <trkpt lat="45.42128" lon="5.54041">
        <ele>573</ele>
        <time>2026-05-25T10:07:31Z</time>
      </trkpt>
      <trkpt lat="45.42118" lon="5.54042">
        <ele>574</ele>
        <time>2026-05-25T10:07:39Z</time>
      </trkpt>
      <trkpt lat="45.42113" lon="5.5404">
        <ele>574</ele>
        <time>2026-05-25T10:07:43Z</time>
      </trkpt>
      <trkpt lat="45.421" lon="5.54035">
        <ele>574</ele>
        <time>2026-05-25T10:07:54Z</time>
      </trkpt>
      <trkpt lat="45.42085" lon="5.54033">
        <ele>575</ele>
        <time>2026-05-25T10:08:06Z</time>
      </trkpt>
      <trkpt lat="45.42078" lon="5.54035">
        <ele>575</ele>
        <time>2026-05-25T10:08:12Z</time>
      </trkpt>
      <trkpt lat="45.42062" lon="5.54051">
        <ele>575</ele>
        <time>2026-05-25T10:08:28Z</time>
      </trkpt>
      <trkpt lat="45.42011" lon="5.54117">
        <ele>574</ele>
        <time>2026-05-25T10:09:23Z</time>
      </trkpt>
      <trkpt lat="45.41996" lon="5.54139">
        <ele>573</ele>
        <time>2026-05-25T10:09:40Z</time>
      </trkpt>
      <trkpt lat="45.41963" lon="5.54188">
        <ele>568</ele>
        <time>2026-05-25T10:10:18Z</time>
      </trkpt>
      <trkpt lat="45.41947" lon="5.54208">
        <ele>566</ele>
        <time>2026-05-25T10:10:35Z</time>
      </trkpt>
      <trkpt lat="45.4194" lon="5.54217">
        <ele>565</ele>
        <time>2026-05-25T10:10:43Z</time>
      </trkpt>
      <trkpt lat="45.41924" lon="5.54233">
        <ele>562</ele>
        <time>2026-05-25T10:10:58Z</time>
      </trkpt>
      <trkpt lat="45.4191" lon="5.54249">
        <ele>560</ele>
        <time>2026-05-25T10:11:13Z</time>
      </trkpt>
      <trkpt lat="45.41901" lon="5.54255">
        <ele>560</ele>
        <time>2026-05-25T10:11:21Z</time>
      </trkpt>
      <trkpt lat="45.41895" lon="5.54257">
        <ele>559</ele>
        <time>2026-05-25T10:11:26Z</time>
      </trkpt>
      <trkpt lat="45.41857" lon="5.54263">
        <ele>555</ele>
        <time>2026-05-25T10:11:56Z</time>
      </trkpt>
      <trkpt lat="45.4184" lon="5.54275">
        <ele>553</ele>
        <time>2026-05-25T10:12:12Z</time>
      </trkpt>
      <trkpt lat="45.41826" lon="5.54308">
        <ele>548</ele>
        <time>2026-05-25T10:12:33Z</time>
      </trkpt>
      <trkpt lat="45.41823" lon="5.54323">
        <ele>546</ele>
        <time>2026-05-25T10:12:42Z</time>
      </trkpt>
      <trkpt lat="45.41823" lon="5.54328">
        <ele>546</ele>
        <time>2026-05-25T10:12:45Z</time>
      </trkpt>
      <trkpt lat="45.41823" lon="5.54329">
        <ele>546</ele>
        <time>2026-05-25T10:12:45Z</time>
      </trkpt>
      <trkpt lat="45.41823" lon="5.54329">
        <ele>546</ele>
        <time>2026-05-25T10:12:45Z</time>
      </trkpt>
      <trkpt lat="45.41817" lon="5.54355">
        <ele>542</ele>
        <time>2026-05-25T10:13:01Z</time>
      </trkpt>
      <trkpt lat="45.41812" lon="5.545">
        <ele>525</ele>
        <time>2026-05-25T10:14:22Z</time>
      </trkpt>
      <trkpt lat="45.41812" lon="5.54529">
        <ele>523</ele>
        <time>2026-05-25T10:14:39Z</time>
      </trkpt>
      <trkpt lat="45.41819" lon="5.54568">
        <ele>523</ele>
        <time>2026-05-25T10:15:01Z</time>
      </trkpt>
      <trkpt lat="45.41819" lon="5.5459">
        <ele>522</ele>
        <time>2026-05-25T10:15:14Z</time>
      </trkpt>
      <trkpt lat="45.41813" lon="5.54623">
        <ele>516</ele>
        <time>2026-05-25T10:15:33Z</time>
      </trkpt>
      <trkpt lat="45.41789" lon="5.5469">
        <ele>504</ele>
        <time>2026-05-25T10:16:15Z</time>
      </trkpt>
      <trkpt lat="45.41775" lon="5.54733">
        <ele>498</ele>
        <time>2026-05-25T10:16:42Z</time>
      </trkpt>
      <trkpt lat="45.41769" lon="5.54798">
        <ele>491</ele>
        <time>2026-05-25T10:17:19Z</time>
      </trkpt>
      <trkpt lat="45.41754" lon="5.54877">
        <ele>483</ele>
        <time>2026-05-25T10:18:05Z</time>
      </trkpt>
      <trkpt lat="45.41733" lon="5.54944">
        <ele>478</ele>
        <time>2026-05-25T10:18:46Z</time>
      </trkpt>
      <trkpt lat="45.4172" lon="5.5499">
        <ele>474</ele>
        <time>2026-05-25T10:19:14Z</time>
      </trkpt>
      <trkpt lat="45.41707" lon="5.55059">
        <ele>469</ele>
        <time>2026-05-25T10:19:54Z</time>
      </trkpt>
      <trkpt lat="45.41693" lon="5.55108">
        <ele>467</ele>
        <time>2026-05-25T10:20:24Z</time>
      </trkpt>
      <trkpt lat="45.41691" lon="5.55114">
        <ele>466</ele>
        <time>2026-05-25T10:20:27Z</time>
      </trkpt>
      <trkpt lat="45.41686" lon="5.55109">
        <ele>466</ele>
        <time>2026-05-25T10:20:32Z</time>
      </trkpt>
      <trkpt lat="45.41669" lon="5.55091">
        <ele>466</ele>
        <time>2026-05-25T10:20:49Z</time>
      </trkpt>
      <trkpt lat="45.41641" lon="5.55041">
        <ele>468</ele>
        <time>2026-05-25T10:21:25Z</time>
      </trkpt>
      <trkpt lat="45.41625" lon="5.55018">
        <ele>468</ele>
        <time>2026-05-25T10:21:43Z</time>
      </trkpt>
      <trkpt lat="45.41579" lon="5.54981">
        <ele>469</ele>
        <time>2026-05-25T10:22:26Z</time>
      </trkpt>
      <trkpt lat="45.41551" lon="5.54966">
        <ele>471</ele>
        <time>2026-05-25T10:22:49Z</time>
      </trkpt>
      <trkpt lat="45.41549" lon="5.54965">
        <ele>471</ele>
        <time>2026-05-25T10:22:51Z</time>
      </trkpt>
      <trkpt lat="45.4157" lon="5.54922">
        <ele>473</ele>
        <time>2026-05-25T10:23:21Z</time>
      </trkpt>
      <trkpt lat="45.41587" lon="5.54897">
        <ele>473</ele>
        <time>2026-05-25T10:23:40Z</time>
      </trkpt>
      <trkpt lat="45.4161" lon="5.54863">
        <ele>475</ele>
        <time>2026-05-25T10:24:07Z</time>
      </trkpt>
      <trkpt lat="45.4163" lon="5.54838">
        <ele>478</ele>
        <time>2026-05-25T10:24:28Z</time>
      </trkpt>
      <trkpt lat="45.41635" lon="5.54832">
        <ele>478</ele>
        <time>2026-05-25T10:24:33Z</time>
      </trkpt>
      <trkpt lat="45.41574" lon="5.54733">
        <ele>479</ele>
        <time>2026-05-25T10:25:47Z</time>
      </trkpt>
      <trkpt lat="45.41564" lon="5.54724">
        <ele>479</ele>
        <time>2026-05-25T10:25:57Z</time>
      </trkpt>
      <trkpt lat="45.41524" lon="5.54705">
        <ele>480</ele>
        <time>2026-05-25T10:26:31Z</time>
      </trkpt>
      <trkpt lat="45.41418" lon="5.54641">
        <ele>483</ele>
        <time>2026-05-25T10:28:03Z</time>
      </trkpt>
      <trkpt lat="45.41409" lon="5.54683">
        <ele>480</ele>
        <time>2026-05-25T10:28:27Z</time>
      </trkpt>
      <trkpt lat="45.41405" lon="5.54698">
        <ele>480</ele>
        <time>2026-05-25T10:28:36Z</time>
      </trkpt>
      <trkpt lat="45.41391" lon="5.54736">
        <ele>478</ele>
        <time>2026-05-25T10:29:01Z</time>
      </trkpt>
      <trkpt lat="45.41386" lon="5.54749">
        <ele>478</ele>
        <time>2026-05-25T10:29:09Z</time>
      </trkpt>
      <trkpt lat="45.41347" lon="5.54874">
        <ele>471</ele>
        <time>2026-05-25T10:30:26Z</time>
      </trkpt>
      <trkpt lat="45.41344" lon="5.54872">
        <ele>471</ele>
        <time>2026-05-25T10:30:28Z</time>
      </trkpt>
      <trkpt lat="45.41347" lon="5.54874">
        <ele>471</ele>
        <time>2026-05-25T10:30:31Z</time>
      </trkpt>
      <trkpt lat="45.41322" lon="5.5491">
        <ele>469</ele>
        <time>2026-05-25T10:31:00Z</time>
      </trkpt>
      <trkpt lat="45.41295" lon="5.54948">
        <ele>468</ele>
        <time>2026-05-25T10:31:30Z</time>
      </trkpt>
      <trkpt lat="45.41289" lon="5.5496">
        <ele>468</ele>
        <time>2026-05-25T10:31:38Z</time>
      </trkpt>
      <trkpt lat="45.41289" lon="5.54965">
        <ele>468</ele>
        <time>2026-05-25T10:31:41Z</time>
      </trkpt>
      <trkpt lat="45.41288" lon="5.54973">
        <ele>468</ele>
        <time>2026-05-25T10:31:46Z</time>
      </trkpt>
      <trkpt lat="45.41288" lon="5.54991">
        <ele>467</ele>
        <time>2026-05-25T10:31:56Z</time>
      </trkpt>
      <trkpt lat="45.41298" lon="5.5509">
        <ele>466</ele>
        <time>2026-05-25T10:32:52Z</time>
      </trkpt>
      <trkpt lat="45.41299" lon="5.55117">
        <ele>465</ele>
        <time>2026-05-25T10:33:07Z</time>
      </trkpt>
      <trkpt lat="45.41296" lon="5.55145">
        <ele>465</ele>
        <time>2026-05-25T10:33:23Z</time>
      </trkpt>
      <trkpt lat="45.41287" lon="5.55183">
        <ele>464</ele>
        <time>2026-05-25T10:33:46Z</time>
      </trkpt>
      <trkpt lat="45.41287" lon="5.5519">
        <ele>464</ele>
        <time>2026-05-25T10:33:49Z</time>
      </trkpt>
      <trkpt lat="45.41292" lon="5.5521">
        <ele>464</ele>
        <time>2026-05-25T10:34:01Z</time>
      </trkpt>
      <trkpt lat="45.41296" lon="5.55253">
        <ele>464</ele>
        <time>2026-05-25T10:34:26Z</time>
      </trkpt>
      <trkpt lat="45.41292" lon="5.55312">
        <ele>465</ele>
        <time>2026-05-25T10:34:59Z</time>
      </trkpt>
      <trkpt lat="45.41293" lon="5.55398">
        <ele>466</ele>
        <time>2026-05-25T10:35:47Z</time>
      </trkpt>
      <trkpt lat="45.41286" lon="5.55412">
        <ele>467</ele>
        <time>2026-05-25T10:35:57Z</time>
      </trkpt>
      <trkpt lat="45.41243" lon="5.55452">
        <ele>470</ele>
        <time>2026-05-25T10:36:38Z</time>
      </trkpt>
      <trkpt lat="45.41239" lon="5.55457">
        <ele>470</ele>
        <time>2026-05-25T10:36:43Z</time>
      </trkpt>
      <trkpt lat="45.41207" lon="5.55503">
        <ele>471</ele>
        <time>2026-05-25T10:37:19Z</time>
      </trkpt>
      <trkpt lat="45.41205" lon="5.55512">
        <ele>471</ele>
        <time>2026-05-25T10:37:24Z</time>
      </trkpt>
      <trkpt lat="45.412" lon="5.55524">
        <ele>471</ele>
        <time>2026-05-25T10:37:32Z</time>
      </trkpt>
      <trkpt lat="45.41201" lon="5.55526">
        <ele>471</ele>
        <time>2026-05-25T10:37:33Z</time>
      </trkpt>
      <trkpt lat="45.41222" lon="5.55543">
        <ele>471</ele>
        <time>2026-05-25T10:37:53Z</time>
      </trkpt>
      <trkpt lat="45.41247" lon="5.55577">
        <ele>471</ele>
        <time>2026-05-25T10:38:20Z</time>
      </trkpt>
      <trkpt lat="45.41255" lon="5.55585">
        <ele>471</ele>
        <time>2026-05-25T10:38:28Z</time>
      </trkpt>
      <trkpt lat="45.41286" lon="5.55585">
        <ele>470</ele>
        <time>2026-05-25T10:38:53Z</time>
      </trkpt>
      <trkpt lat="45.41287" lon="5.55584">
        <ele>470</ele>
        <time>2026-05-25T10:38:54Z</time>
      </trkpt>
    </trkseg>
  </trk>
</gpx>